Overview Statistics Trail Chart Weather Telemetry Raw packets
 

This is the latest recevied weather packets stored in our database for station/object N6ZHV-13. If no packets are shown the sender has not sent any weather packets the latest 10 day(s).

<< 17 18 19 20 21 22 23 >>
Time Temp. Humidity Pressure Rain* Wind** Luminosity Snow
1788567722 25.56° C 44% 1007.1 hPa 0 mm - - -
1788567422 25.56° C 45% 1007.1 hPa 0 mm - - -
1788567122 26.11° C 44% 1007.2 hPa 0 mm - - -
1788566822 25.56° C 42% 1007.2 hPa 0 mm - - -
1788566522 26.11° C 43% 1007.2 hPa 0 mm - - -
1788566222 26.11° C 41% 1007.2 hPa 0 mm - - -
1788565922 26.11° C 41% 1007.2 hPa 0 mm - - -
1788565622 26.67° C 36% 1007.2 hPa 0 mm - - -
1788565322 26.67° C 37% 1007.3 hPa 0 mm - - -
1788565022 26.67° C 37% 1007.3 hPa 0 mm - - -
1788564722 26.67° C 36% 1007.3 hPa 0 mm - - -
1788564422 26.67° C 35% 1007.3 hPa 0 mm - - -
1788564122 26.67° C 39% 1007.3 hPa 0 mm - - -
1788563822 27.22° C 37% 1007.3 hPa 0 mm - - -
1788563522 26.67° C 34% 1007.3 hPa 0 mm - - -
1788563222 26.11° C 33% 1007.5 hPa 0 mm - - -
1788562922 26.67° C 35% 1007.5 hPa 0 mm - - -
1788562622 26.11° C 35% 1007.6 hPa 0 mm - - -
1788562322 26.11° C 36% 1007.7 hPa 0 mm - - -
1788562022 26.11° C 36% 1007.7 hPa 0 mm - - -
1788561722 26.11° C 36% 1007.7 hPa 0 mm - - -
1788561422 26.67° C 37% 1007.7 hPa 0 mm - - -
1788561122 26.67° C 35% 1007.8 hPa 0 mm - - -
1788560822 26.67° C 38% 1007.8 hPa 0 mm - - -
1788560522 27.22° C 37% 1007.7 hPa 0 mm - - -

* Rain latest hour (hover to see other rain measurements)
** Current wind speed in m/s (hover to see current wind gust speed)